ARE5325 SKPE-SKBO

Flight info

Callsign ARE5325
Flight time 0h 24m
Altitude 19000
Route TOLIM1D TOLIM TOLIM4E
Aircraft A320/M-SDE3FGHIRWY/LB1

Departure

Time 2026-04-26 05:36
Airport Matecaña International Airport (SKPE)

Arrival

Time 2026-04-26 06:01
Airport El Dorado International Airport (SKBO)
Time Latitude Longitude Altitude Speed Heading
2026-04-26 05:07 4.81502 -75.73713 4427 ft 0 kts 342°
2026-04-26 05:29 4.81499 -75.73712 4426 ft 2 kts 342°
2026-04-26 05:29 4.81483 -75.73708 4428 ft 2 kts 359°
2026-04-26 05:29 4.81466 -75.73708 4428 ft 2 kts 22°
2026-04-26 05:30 4.81452 -75.73715 4429 ft 2 kts 34°
2026-04-26 05:30 4.81441 -75.73728 4428 ft 2 kts 89°
2026-04-26 05:30 4.81442 -75.73741 4427 ft 0 kts 75°
2026-04-26 05:33 4.81444 -75.73733 4427 ft 6 kts 73°
2026-04-26 05:33 4.81465 -75.73668 4427 ft 13 kts 72°
2026-04-26 05:33 4.81494 -75.73579 4429 ft 14 kts 72°
2026-04-26 05:34 4.81498 -75.73489 4431 ft 13 kts 133°
2026-04-26 05:34 4.81428 -75.73442 4430 ft 9 kts 97°
2026-04-26 05:34 4.81454 -75.73378 4429 ft 14 kts 71°
2026-04-26 05:34 4.81489 -75.73271 4428 ft 17 kts 71°
2026-04-26 05:35 4.81527 -75.73152 4428 ft 18 kts 69°
2026-04-26 05:35 4.81578 -75.73054 4428 ft 7 kts 122°
2026-04-26 05:35 4.81558 -75.73077 4428 ft 7 kts 244°
2026-04-26 05:35 4.81540 -75.73117 4428 ft 8 kts 248°
2026-04-26 05:36 4.81465 -75.73357 4431 ft 80 kts 251°
2026-04-26 05:36 4.81198 -75.74177 4414 ft 163 kts 251°
2026-04-26 05:36 4.80797 -75.75406 4854 ft 198 kts 251°
2026-04-26 05:36 4.80362 -75.76765 5817 ft 204 kts 252°
2026-04-26 05:37 4.79931 -75.78092 6582 ft 202 kts 252°
2026-04-26 05:37 4.79487 -75.79461 7063 ft 209 kts 252°
2026-04-26 05:37 4.79040 -75.80835 7600 ft 211 kts 251°
2026-04-26 05:37 4.78279 -75.82079 8139 ft 214 kts 217°
2026-04-26 05:38 4.76871 -75.82548 8520 ft 226 kts 179°
2026-04-26 05:38 4.75248 -75.82265 8724 ft 246 kts 163°
2026-04-26 05:38 4.73561 -75.81678 9039 ft 266 kts 159°
2026-04-26 05:38 4.71800 -75.80991 9625 ft 279 kts 159°
2026-04-26 05:39 4.70541 -75.80515 9913 ft 292 kts 161°
2026-04-26 05:39 4.68571 -75.79927 9997 ft 297 kts 166°
2026-04-26 05:39 4.66552 -75.79468 10003 ft 297 kts 168°
2026-04-26 05:39 4.64530 -75.79083 10011 ft 313 kts 170°
2026-04-26 05:40 4.62298 -75.78738 10331 ft 333 kts 172°
2026-04-26 05:40 4.59979 -75.78433 10982 ft 340 kts 173°
2026-04-26 05:40 4.57610 -75.78136 11692 ft 345 kts 174°
2026-04-26 05:40 4.55206 -75.77831 12426 ft 350 kts 173°
2026-04-26 05:41 4.52778 -75.77513 13132 ft 354 kts 173°
2026-04-26 05:41 4.50344 -75.77038 13823 ft 359 kts 162°
2026-04-26 05:41 4.48076 -75.75962 14424 ft 365 kts 147°
2026-04-26 05:41 4.46148 -75.74301 15036 ft 369 kts 131°
2026-04-26 05:42 4.44721 -75.72166 15637 ft 372 kts 115°
2026-04-26 05:42 4.43847 -75.69710 16241 ft 376 kts 107°
2026-04-26 05:42 4.43078 -75.67196 16868 ft 379 kts 107°
2026-04-26 05:42 4.42295 -75.64670 17492 ft 382 kts 107°
2026-04-26 05:43 4.41492 -75.62105 18120 ft 386 kts 107°
2026-04-26 05:43 4.40684 -75.59535 18679 ft 389 kts 107°
2026-04-26 05:43 4.39864 -75.56935 19032 ft 392 kts 107°
2026-04-26 05:43 4.39049 -75.54333 19138 ft 389 kts 106°
2026-04-26 05:44 4.38571 -75.51747 19170 ft 380 kts 93°
2026-04-26 05:44 4.38768 -75.49098 19177 ft 376 kts 76°
2026-04-26 05:44 4.39622 -75.46790 19179 ft 374 kts 63°
2026-04-26 05:44 4.40739 -75.44464 19172 ft 374 kts 63°
2026-04-26 05:45 4.41882 -75.42125 19162 ft 374 kts 63°
2026-04-26 05:45 4.43041 -75.39781 19173 ft 373 kts 63°
2026-04-26 05:45 4.44190 -75.37461 19160 ft 372 kts 63°
2026-04-26 05:45 4.45341 -75.35143 19143 ft 372 kts 63°
2026-04-26 05:46 4.46492 -75.32816 19134 ft 372 kts 63°
2026-04-26 05:46 4.47639 -75.30492 19124 ft 372 kts 63°
2026-04-26 05:46 4.48780 -75.28172 19118 ft 372 kts 63°
2026-04-26 05:46 4.49921 -75.25848 19110 ft 372 kts 63°
2026-04-26 05:47 4.51061 -75.23523 19105 ft 372 kts 63°
2026-04-26 05:47 4.52201 -75.21198 19099 ft 371 kts 63°
2026-04-26 05:47 4.53341 -75.18877 19094 ft 371 kts 63°
2026-04-26 05:47 4.54483 -75.16557 19093 ft 371 kts 63°
2026-04-26 05:48 4.55627 -75.14232 19095 ft 371 kts 63°
2026-04-26 05:48 4.56768 -75.11912 19098 ft 371 kts 63°
2026-04-26 05:48 4.57909 -75.09591 19113 ft 372 kts 63°
2026-04-26 05:48 4.59055 -75.07256 19122 ft 372 kts 63°
2026-04-26 05:49 4.60189 -75.04943 19126 ft 372 kts 63°
2026-04-26 05:49 4.62472 -75.00287 19149 ft 371 kts 63°
2026-04-26 05:49 4.63610 -74.97967 19197 ft 371 kts 63°
2026-04-26 05:50 4.64752 -74.95641 19198 ft 371 kts 63°
2026-04-26 05:50 4.65890 -74.93326 19198 ft 371 kts 63°
2026-04-26 05:50 4.67036 -74.90998 19198 ft 371 kts 63°
2026-04-26 05:50 4.68176 -74.88679 19198 ft 371 kts 63°
2026-04-26 05:51 4.69319 -74.86355 19198 ft 371 kts 63°
2026-04-26 05:51 4.70454 -74.84044 19197 ft 371 kts 63°
2026-04-26 05:51 4.71586 -74.81742 19219 ft 371 kts 63°
2026-04-26 05:51 4.72726 -74.79424 19219 ft 371 kts 63°
2026-04-26 05:52 4.73862 -74.77108 19208 ft 371 kts 63°
2026-04-26 05:52 4.75012 -74.74758 19204 ft 378 kts 63°
2026-04-26 05:52 4.76169 -74.72395 18906 ft 376 kts 63°
2026-04-26 05:52 4.77320 -74.70046 18450 ft 374 kts 63°
2026-04-26 05:53 4.78465 -74.67710 17929 ft 373 kts 63°
2026-04-26 05:53 4.79607 -74.65380 17428 ft 372 kts 63°
2026-04-26 05:53 4.80747 -74.63055 16984 ft 370 kts 63°
2026-04-26 05:53 4.81879 -74.60753 16536 ft 367 kts 63°
2026-04-26 05:54 4.83004 -74.58460 16103 ft 365 kts 63°
2026-04-26 05:54 4.84116 -74.56191 15663 ft 362 kts 63°
2026-04-26 05:54 4.85225 -74.53926 15233 ft 360 kts 63°
2026-04-26 05:54 4.86328 -74.51674 14816 ft 358 kts 63°
2026-04-26 05:55 4.87422 -74.49439 14455 ft 356 kts 63°
2026-04-26 05:55 4.88382 -74.47194 14279 ft 346 kts 72°
2026-04-26 05:55 4.88831 -74.44851 14167 ft 336 kts 85°
2026-04-26 05:55 4.88784 -74.42513 13555 ft 342 kts 98°
2026-04-26 05:56 4.88179 -74.40209 13061 ft 335 kts 112°
2026-04-26 05:56 4.87157 -74.38245 12909 ft 310 kts 124°
2026-04-26 05:56 4.85920 -74.36565 12896 ft 283 kts 127°
2026-04-26 05:56 4.84762 -74.35035 12660 ft 271 kts 127°
2026-04-26 05:57 4.83655 -74.33571 12332 ft 263 kts 127°
2026-04-26 05:57 4.82568 -74.32135 12001 ft 255 kts 127°
2026-04-26 05:57 4.81510 -74.30737 11720 ft 247 kts 127°
2026-04-26 05:57 4.80487 -74.29386 11396 ft 239 kts 127°
2026-04-26 05:58 4.79499 -74.28080 11103 ft 232 kts 127°
2026-04-26 05:58 4.78538 -74.26810 10824 ft 226 kts 126°
2026-04-26 05:58 4.77608 -74.25582 10561 ft 213 kts 127°
2026-04-26 05:58 4.76765 -74.24468 10324 ft 190 kts 126°
2026-04-26 05:59 4.76000 -74.23457 10079 ft 174 kts 127°
2026-04-26 05:59 4.75289 -74.22517 9857 ft 166 kts 127°
2026-04-26 05:59 4.74594 -74.21600 9610 ft 163 kts 127°
2026-04-26 05:59 4.73913 -74.20700 9381 ft 161 kts 128°
2026-04-26 06:00 4.73239 -74.19810 9122 ft 160 kts 129°
2026-04-26 06:00 4.72570 -74.18927 8893 ft 159 kts 128°
2026-04-26 06:00 4.71911 -74.18055 8684 ft 158 kts 129°
2026-04-26 06:00 4.71248 -74.17179 8471 ft 157 kts 128°
2026-04-26 06:01 4.70596 -74.16307 8354 ft 151 kts 128°
2026-04-26 06:01 4.70042 -74.15590 8346 ft 106 kts 127°
2026-04-26 06:01 4.69716 -74.15156 8347 ft 44 kts 127°
2026-04-26 06:01 4.69569 -74.14963 8344 ft 32 kts 128°
2026-04-26 06:02 4.69435 -74.14790 8344 ft 31 kts 127°
2026-04-26 06:02 4.69349 -74.14655 8347 ft 14 kts 102°
2026-04-26 06:02 4.69399 -74.14583 8345 ft 13 kts 35°
2026-04-26 06:02 4.69475 -74.14529 8349 ft 14 kts 33°
2026-04-26 06:03 4.69543 -74.14566 8346 ft 13 kts 305°
2026-04-26 06:03 4.69602 -74.14642 8346 ft 14 kts 308°
2026-04-26 06:03 4.69665 -74.14725 8351 ft 16 kts 306°
2026-04-26 06:03 4.69742 -74.14804 8350 ft 16 kts 347°
2026-04-26 06:04 4.69837 -74.14746 8346 ft 17 kts 37°
2026-04-26 06:04 4.69934 -74.14672 8346 ft 18 kts 37°
2026-04-26 06:04 4.70039 -74.14592 8346 ft 19 kts 36°
2026-04-26 06:04 4.70059 -74.14533 8346 ft 8 kts 122°
2026-04-26 06:05 4.70037 -74.14502 8348 ft 0 kts 126°
2026-04-26 06:05 4.70033 -74.14497 8348 ft 4 kts 124°
2026-04-26 06:05 4.70041 -74.14458 8346 ft 6 kts 63°
2026-04-26 06:05 4.70057 -74.14429 8346 ft 4 kts 60°
2026-04-26 06:06 4.70059 -74.14426 8346 ft 0 kts 60°